Regional Weather Roundup
Issued by NWS

Home | Current Version | Previous Version | Text Only | Print | Product List | Glossary On
Versions: 1 2 3 4 5 6 7 8 9 10 11 12 13 14 15 16 17 18 19 20 21 22 23 24 25 26 27 28 29 30 31 32 33 34 35 36 37 38 39 40 41 42 43 44 45 46 47 48 49 50
000
ASUS46 KLOX 011912
RWRCA

SOUTHERN CALIFORNIA WEATHER ROUNDUP
NATIONAL WEATHER SERVICE OXNARD CALIFORNIA
1200 PM PDT MON SEP 01 2014

NOTE: "FAIR" INDICATES FEW OR NO CLOUDS BELOW 12,000 FEET WITH NO
SIGNIFICANT WEATHER AND/OR OBSTRUCTIONS TO VISIBILITY.

  -  STATIONS PRECEEDED BY AN ASTERISK (*) ARE NOT NWS OR FAA
     STATIONS AND ARE NOT SUBJECT TO NWS AND FAA QUALITY CONTROL.

CAZ041-042-087-012000-
LA AND ORANGE COUNTY COASTAL AREAS


CITY           SKY/WX    TMP DP  RH WIND       PRES   REMARKS
L.A. DOWNTOWN  SUNNY     84  62  47 VRB3      29.82F
L.A. AIRPORT   MOSUNNY   77  64  64 W10       29.84F
LONG BEACH     SUNNY     76  64  66 SW9       29.84F

CITY           SKY/WX    TMP DP  RH WIND       PRES   REMARKS
AVALON           N/A     73 N/A N/A MISG        N/A
FULLERTON      SUNNY     86  63  45 MISG        N/A
*GETTY CENTER    N/A     79  64  61 SW8         N/A
HAWTHORNE      SUNNY     80  64  58 W7        29.83F
*LOS ALAMITOS  FAIR      79  65  63 SW12      29.83F
*REDONDO BEACH   N/A     80  64  59 CALM      29.83F
SANTA ANA      SUNNY     81  63  54 SW12      29.83F
STA MONICA APT SUNNY     77  63  61 W8        29.84F
TORRANCE       SUNNY     82  64  54 SE9       29.85F
*UCLA            N/A     77  63  61 SW8       29.82S

$$

CAZ547-548-048-012000-
LA COUNTY VALLEYS AND INLAND EMPIRE


CITY           SKY/WX    TMP DP  RH WIND       PRES   REMARKS
BURBANK        SUNNY     84  60  44 S9        29.83F
VAN NUYS       SUNNY     86  60  41 S8        29.83F

CITY           SKY/WX    TMP DP  RH WIND       PRES   REMARKS
CORONA AIRPORT CLEAR     87  62  42 SW8       29.82F
*CHATSWORTH      N/A     85  60  41 CALM      29.79F
CHINO          MOSUNNY   88  54  31 W5        29.84F
MARCH AFB      MOSUNNY   90  43  19 SE9       29.86F
ONTARIO        MOSUNNY   88  49  25 SW6       29.84F
*PASADENA        N/A     88  63  42 CALM        N/A
RIVERSIDE      SUNNY     89  52  28 NW3       29.83F
SAN BERNARDINO SUNNY     90  37  15 CALM      29.84F
*WHITEMAN AP   SUNNY     82  57  42 E7        29.88F
*WOODLAND HILL   N/A     90  54  29 NE3         N/A

$$

CAZ054-055-012000-
LA AND SAN BERNARDINO COUNTY MOUNTAINS


CITY           SKY/WX    TMP DP  RH WIND       PRES   REMARKS
*ACTON           N/A     87  35  16 S8          N/A
*BIG BEAR AIRP CLEAR     77  18  10 CALM      30.18F
*BIG PINES       N/A     82  31  16 CALM        N/A
*CHILAO          N/A     84  41  21 S7          N/A
MT WILSON NWS    N/A     82  52  34 MISG        N/A
SANDBERG       SUNNY     90  21   8 N7        30.04F
*WARM SPRINGS    N/A     83  49  30 S3          N/A

$$

CAZ028-029-059-060-099-012000-
ANTELOPE VALLEY AND SURROUNDING AREAS


CITY           SKY/WX    TMP DP  RH WIND       PRES   REMARKS
LANCASTER      SUNNY     91  29  11 VRB5      29.88F
PALMDALE       SUNNY     93  27   9 N5        29.89F

CITY           SKY/WX    TMP DP  RH WIND       PRES   REMARKS
29 PALMS       SUNNY     95  38  13 E9        29.91F HX  90
BARSTOW/DAGGET SUNNY     93  33  12 CALM      29.85F
BISHOP         SUNNY     91  31  11 VRB3      29.97F
CHINA LAKE     SUNNY     94  29  10 VRB6      29.86F
EDWARDS AFB    SUNNY     89  33  13 VRB1      29.86F
MOJAVE         FAIR      90  32  12 E3        29.91F
NEEDLES        SUNNY    105  41  11 S9        29.77F HX 100
VICTORVILLE    SUNNY     91  30  11 SE6       29.91F

$$

CAZ039-040-012000-
VENTURA AND SANTA BARBARA COUNTY COAST


CITY           SKY/WX    TMP DP  RH WIND       PRES   REMARKS
CAMARILLO      SUNNY     82  64  54 SW8       29.83F
NWS OXNARD       N/A     78  65  62 CALM      29.84S
OXNARD AIRPORT SUNNY     76  65  68 W12       29.84S
*POINT MUGU    SUNNY     81  65  58 W10       29.85S
SBA APT/GOLETA SUNNY     75  63  66 SW8       29.85S
*VENTURA         N/A     78  65  64 SW6       29.87F

$$

CAZ044-045-012000-
VENTURA COUNTY VALLEYS


CITY           SKY/WX    TMP DP  RH WIND       PRES   REMARKS
*SIMI VALLEY     N/A     85  64  47 W2        29.77F
*OJAI            N/A     90  65  42 NW6       29.75F HX  91
*FILLMORE        N/A     89  67  48 CALM      29.72F HX  91

$$

CAZ053-012000-
VENTURA COUNTY MOUNTAINS


CITY           SKY/WX    TMP DP  RH WIND       PRES   REMARKS
*LOCKWOOD VLY    N/A     86  32  14 MISG        N/A
*ROSE VALLEY     N/A    N/A N/A N/A MISG        N/A

$$

CAZ034-035-036-012000-
CENTRAL COAST AND SANTA YNEZ VALLEY


CITY           SKY/WX    TMP DP  RH WIND       PRES   REMARKS
SAN LUIS OBISP SUNNY     79  56  45 CALM      29.85F
SANTA MARIA    SUNNY     76  57  51 W6        29.86F

CITY           SKY/WX    TMP DP  RH WIND       PRES   REMARKS
*CAL POLY SLO    N/A    N/A N/A N/A S3          N/A
*LOMPOC        SUNNY     72  57  60 W13       29.88S
*PISMO BEACH     N/A     62  59  90 SW5       29.88S
*SANTA YNEZ    FAIR      81  55  41 W5        29.85F

$$

CAZ037-038-051-012000-
SAN LUIS OBISPO COUNTY INTERIOR AND CUYAMA VALLEY


CITY           SKY/WX    TMP DP  RH WIND       PRES   REMARKS
*CUYAMA          N/A     88  45  21 N1        29.75F
PASO ROBLES    SUNNY     87  49  26 W3        29.84F

$$

CAZ032-033-061-012000-
SOUTHERN DESERTS


CITY           SKY/WX    TMP DP  RH WIND       PRES   REMARKS
BLYTHE         SUNNY    100  50  18 VRB6      29.75F HX  97
IMPERIAL       SUNNY    100  57  23 MISG      29.72F HX  99
PALM SPRINGS   SUNNY     99  43  14 E9        29.77F HX  95
THERMAL        SUNNY     99  56  23 SE10      29.71F HX  97

$$

ELSEWHERE ACROSS THE WESTERN UNITED STATES AND MEXICO


CITY           SKY/WX    TMP DP  RH WIND       PRES   REMARKS
DENVER, CO     MOSUNNY   76  37  24 NW12      30.03F
GRAND CANYON,  SUNNY     79  37  22 S12G18    30.22F
HONOLULU, HI   MOSUNNY   82  72  69 S3        30.03R
KAHULUI, MAUI  MOSUNNY   82  70  65 CALM      30.03R
LAKE TAHOE, CA SUNNY     75  40  28 E6        30.15F
LAS VEGAS, NV  SUNNY     98  32  10 CALM      29.82F HX  92
MAMMOTH LAKES, FAIR      79  25  13 SE7       30.20F
MEXICO CITY, M PTSUNNY   73  54  49 NE12      30.26F
PHOENIX, AZ    MOSUNNY  100  45  15 SE5       29.82F HX  96
PORTLAND, OR   MOSUNNY   72  52  49 CALM      30.08F
RENO, NV       SUNNY     80  34  19 E7        30.07F
SALT LAKE CITY MOSUNNY   75  35  23 NW8       30.09F
SAN DIEGO, CA  MOSUNNY   74  62  66 S9        29.86S
SAN FRANCISCO, SUNNY     73  62  68 NE5       29.84F
SAN JOSE, CA   SUNNY     81  54  39 N3        29.83F
SEATTLE, WA    MOSUNNY   68  54  60 S9        30.10F
TIJUANA, MEX   SUNNY     82  54  36 S7        29.86

$$

STATION/POSITION TIME  TEMP    WIND        PRES    VSBY  WAVE
                       AIR SEA DIR/SP/G                  HT/PER
                 (UTC) (F)     (DEG/KT/KT) (MB)    (MI)  (FT/S)
POINT ARGUELLO B NOT AVBL
WEST SANTA BARBA 1900   62 61  310/ 14/ 17 1010.6F         5/ 8
POINT CONCEPTION NOT AVBL
EAST SANTA BARBA 1900   66 68  250/  6/  8 1011.1F
SANTA MONICA BAY 1900   70 73  330/  6/  8 1010.4F         3/15



USA.gov is the U.S. government's official web portal to all federal, state and local government web resources and services.